Regional Weather Roundup
Issued by NWS Little Rock, AR

Home | Current Version | Previous Version | Text Only | Print | Product List | Glossary Off
Versions: 1 2 3 4 5 6 7 8 9 10 11 12 13 14 15 16 17 18 19 20 21 22 23 24 25 26 27 28 29 30 31 32 33 34 35 36 37 38 39 40 41 42 43 44 45 46 47 48 49 50

000
ASUS44 KLZK 050705
RWRLZK

WEATHER ROUNDUP FOR ARKANSAS
NATIONAL WEATHER SERVICE LITTLE ROCK AR
200 AM CDT TUE MAY 05 2015

NOTE: "FAIR" INDICATES FEW OR NO CLOUDS BELOW 12,000 FEET WITH NO
SIGNIFICANT WEATHER AND/OR OBSTRUCTIONS TO VISIBILITY.

ARZ001-003-010-029-050800-
NORTHWEST ARKANSAS

CITY           SKY/WX    TMP DP  RH WIND       PRES   REMARKS
FAYETTEVILLE   CLEAR     54  54 100 CALM      30.14F
FORT SMITH     CLEAR     64  56  75 N3        30.10F
HARRISON       CLEAR     61  55  81 SE5       30.16F
BENTONVILLE    CLEAR    N/A N/A N/A SE5       30.14F
ROGERS         CLEAR     61  56  83 E6        30.15F
SILOAM SPGS    CLEAR     59  48  67 SE5       30.14F
HIGHFILL       CLEAR     59  53  80 CALM      30.13F
$$

ARZ004-005-016-050800-
NORTH CENTRAL ARKANSAS

CITY           SKY/WX    TMP DP  RH WIND       PRES   REMARKS
BATESVILLE     CLEAR     61  54  77 SE3       30.16F
FLIPPIN        CLEAR     61  55  82 CALM      30.15S
MTN HOME       CLEAR     62  55  77 SE5       30.15F
$$

ARZ040-041-050800-
WEST CENTRAL ARKANSAS

CITY           SKY/WX    TMP DP  RH WIND       PRES   REMARKS
MENA           CLEAR     59  55  88 CALM      30.13F
MOUNT IDA      PTCLDY    67  57  70 CALM      30.11F
$$

ARZ009-017-025-026-028-050800-
NORTHEAST ARKANSAS

CITY           SKY/WX    TMP DP  RH WIND       PRES   REMARKS
CORNING          N/A     63  54  72 SE6       30.17F
JONESBORO      PTCLDY    57  54  89 CALM      30.17S
NEWPORT        PTCLDY    63  53  69 N6        30.17F
WALNUT RIDGE   CLEAR     64  50  59 CALM      30.16F
BLYTHEVILLE    CLEAR     66  55  67 S8        30.19R
$$

ARZ022-023-033-042-044-050800-
CENTRAL ARKANSAS

CITY           SKY/WX    TMP DP  RH WIND       PRES   REMARKS
LITTLE ROCK    PTCLDY    65  56  72 CALM      30.14F
N LITTLE ROCK    N/A     69  58  68 S5        30.14F
SEARCY         CLEAR     60  56  86 CALM      30.17S
HOT SPRINGS    MOCLDY    69  58  67 SE3       30.14S
RUSSELLVILLE   PTCLDY    63  58  83 CALM      30.13F
$$

ARZ036-050800-
EAST ARKANSAS

CITY           SKY/WX    TMP DP  RH WIND       PRES   REMARKS
WEST MEMPHIS   CLOUDY    69  59  70 S8        30.17S
$$

ARZ050-053-066-070-073-050800-
SOUTHWEST ARKANSAS

CITY           SKY/WX    TMP DP  RH WIND       PRES   REMARKS
ARKADELPHIA    PTSUNNY   66  64  93 CALM      30.14S
CAMDEN         MOCLDY    68  59  73 CALM      30.14R
TEXARKANA      CLEAR     67  62  84 SE10      30.11R
EL DORADO      CLEAR     66  61  84 SE3       30.14S
DE QUEEN       CLEAR     60  58  92 CALM      30.08F
$$

ARZ056-057-069-050800-
SOUTHEAST ARKANSAS

CITY           SKY/WX    TMP DP  RH WIND       PRES   REMARKS
PINE BLUFF     MOCLDY    65  60  84 E5        30.15S
STUTTGART      PTCLDY    68  55  64 SE6       30.16S
MONTICELLO     CLOUDY    69  61  75 S5        30.16R

$$




USA.gov is the U.S. government's official web portal to all federal, state and local government web resources and services.